This demonstration page uses our WeatherBlox Daily Observations layout. Learn more.

Left ArrowRight Arrow

Hourly Observations for September 28, 2021

Temp ( °F °C ) Dew Point ( °F °C ) Humidity (%) Winds ( mph kmh ) Pressure ( in mb ) Visibility ( mi km ) Precip ( " mm )
12:53 am 00:53 Clear 72 22.2 52 11.1 50 50 SE 6 9 29.80 1009 10 16 0.00 0.00
1:53 am 01:53 Clear 72 22.2 53 11.7 52 52 SE 7 11 29.79 1009 10 16 0.00 0.00
2:53 am 02:53 Clear 69 20.6 53 11.7 57 57 SE 7 11 29.78 1008 10 16 0.00 0.00
3:53 am 03:53 Clear 68 20 54 12.2 61 61 SE 7 11 29.77 1008 10 16 0.00 0.00
4:53 am 04:53 Clear 67 19.4 54 12.2 63 63 SSE 8 13 29.78 1008 10 16 0.00 0.00
5:53 am 05:53 Clear 65 18.3 54 12.2 68 68 SSE 7 11 29.78 1009 10 16 0.00 0.00
6:53 am 06:53 Clear N/A N/A N/A SSE 5 7 N/A 10 16 0.00 0.00
7:53 am 07:53 Sunny N/A N/A N/A S 6 9 N/A 10 16 0.00 0.00
8:53 am 08:53 Sunny N/A N/A N/A S 6 9 N/A 10 16 0.00 0.00
9:53 am 09:53 Sunny N/A N/A N/A S 7 11 N/A 10 16 0.00 0.00
10:53 am 10:53 Sunny 78 25.6 56 13.3 47 47 S 8 13 29.81 1009 8 13 0.00 0.00
11:53 am 11:53 Sunny 83 28.3 54 12.2 37 37 SSE 9 15 29.80 1009 10 16 0.00 0.00
12:53 pm 12:53 Sunny 88 31.1 53 11.7 30 30 SE 9 15 29.78 1008 10 16 0.00 0.00
1:53 pm 13:53 Sunny 90 32.2 54 12.2 29 29 SSE 9 15 29.75 1008 10 16 0.00 0.00
2:53 pm 14:53 Sunny 91 32.8 50 10 25 25 S 14 22 29.73 1007 10 16 0.00 0.00
3:53 pm 15:53 Sunny 89 31.7 51 10.6 27 27 SSW 14 22 29.72 1007 10 16 0.00 0.00
4:53 pm 16:53 Sunny 86 30 54 12.2 33 33 S 12 19 29.73 1007 10 16 0.00 0.00
5:53 pm 17:53 Sunny 87 30.6 52 11.1 30 30 SSE 14 22 29.72 1007 10 16 0.00 0.00
6:53 pm 18:53 Sunny 84 28.9 53 11.7 34 34 SSE 12 19 29.66 1004 10 16 0.00 0.00
7:53 pm 19:53 Clear 80 26.7 55 12.8 42 42 SE 8 13 29.67 1005 10 16 0.00 0.00
8:53 pm 20:53 Clear 78 25.6 56 13.3 47 47 SE 12 19 29.69 1005 10 16 0.00 0.00
9:53 pm 21:53 Clear 74 23.3 55 12.8 52 52 SSE 10 17 29.72 1007 10 16 0.00 0.00
10:53 pm 22:53 Clear 72 22.2 55 12.8 55 55 SSE 9 15 29.77 1008 10 16 0.00 0.00
11:53 pm 23:53 Clear 71 21.7 54 12.2 55 55 SE 8 13 29.77 1008 10 16 0.00 0.00

Powered by AerisWeather